"Platform","Saginaw Bay ReCON Buoy"
"NDBC ID","45163"
"Latitude (deg)",43.98440
"Longitude (deg)",-83.59753
"Water Depth (m)",12.7
"Sensor Device","AirMar Weather Station Model 200WX"
"Sensor Serial No.","60221354"
"Sensor Height","2.5 meters above water surface"
"Sensor Type","Sensor pitch angle"
"Sensor Units","degrees"
"Measurement","2 minute average of data samples taken at 5 second interval"
"Time means","Time at end of averaging period (UTC time zone)"

"Note:","This data was collected for research purposes."
"Note:","Minimal quality checking has been performed so data may contain known or unknown errors."
"Note:","Data provided by NOAA. Please credit NOAA."
"Note:","For more info see www.glerl.noaa.gov/res/recon"

"Time (UTC)","Pitch"
"YYYY/MM/DD HH:MM","deg"
2024/05/16 00:04, -5.699999
2024/05/16 00:06, -5.704166
2024/05/16 00:08, -5.704166
2024/05/16 00:10, -5.716667
2024/05/16 00:12, -5.6875
2024/05/16 00:14, -5.679166
2024/05/16 00:16, -5.654166
2024/05/16 00:18, -5.654166
2024/05/16 00:20, -5.65
2024/05/16 00:22, -5.704166
2024/05/16 00:24, -5.637499
2024/05/16 00:26, -5.604166
2024/05/16 00:28, -5.641666
2024/05/16 00:30, -5.604166
2024/05/16 00:32, -5.6
2024/05/16 00:34, -5.595833
2024/05/16 00:36, -5.604166
2024/05/16 00:38, -5.595833
2024/05/16 00:40, -5.579166
2024/05/16 00:42, -5.558333
2024/05/16 00:44, -5.554166
2024/05/16 00:46, -5.570833
2024/05/16 00:48, -5.5875
2024/05/16 00:50, -5.529167
2024/05/16 00:52, -5.579166
2024/05/16 00:54, -5.5875
2024/05/16 00:56, -5.521739
2024/05/16 00:58, -5.504166
2024/05/16 01:00, -5.508333
2024/05/16 01:02, -5.529167
2024/05/16 01:04, -5.541666
2024/05/16 01:06, -5.545833
2024/05/16 01:08, -5.525
2024/05/16 01:10, -5.512499
2024/05/16 01:12, -5.541666
2024/05/16 01:14, -5.570833
2024/05/16 01:16, -5.554546
2024/05/16 01:18, -5.566666
2024/05/16 01:20, -5.566666
2024/05/16 01:22, -5.554166
2024/05/16 01:24, -5.579166
2024/05/16 01:26, -5.595833
2024/05/16 01:28, -5.591667
2024/05/16 01:30, -5.574999
2024/05/16 01:32, -5.566666
2024/05/16 01:34, -5.533333
2024/05/16 01:36, -5.630434
2024/05/16 01:38, -5.583332
2024/05/16 01:40, -5.591667
2024/05/16 01:42, -5.558333
2024/05/16 01:44, -5.566666
2024/05/16 01:46, -5.583332
2024/05/16 01:48, -5.55
2024/05/16 01:50, -5.574999
2024/05/16 01:52, -5.558333
2024/05/16 01:54, -5.533333
2024/05/16 01:56, -5.574999
2024/05/16 01:58, -5.55
2024/05/16 02:00, -5.55
2024/05/16 02:02, -5.574999
2024/05/16 02:04, -5.516666
2024/05/16 02:06, -5.383333
2024/05/16 02:08, -5.454166
2024/05/16 02:10, -5.491666
2024/05/16 02:12, -5.574999
2024/05/16 02:14, -5.475
2024/05/16 02:16, -5.518181
2024/05/16 02:18, -5.4
2024/05/16 02:20, -5.433333
2024/05/16 02:22, -5.408333
2024/05/16 02:24, -5.416666
2024/05/16 02:26, -5.416666
2024/05/16 02:28, -5.408333
2024/05/16 02:30, -5.4
2024/05/16 02:32, -5.425
2024/05/16 02:34, -5.4
2024/05/16 02:36, -5.4
2024/05/16 02:38, -5.408333
2024/05/16 02:40, -5.408333
2024/05/16 02:42, -5.4
2024/05/16 02:44, -5.4
2024/05/16 02:46, -5.4
2024/05/16 02:48, -5.4
2024/05/16 02:50, -5.4
2024/05/16 02:52, -5.4
2024/05/16 02:54, -5.4
2024/05/16 02:56, -5.404545
2024/05/16 02:58, -5.441666
2024/05/16 03:00, -5.416666
2024/05/16 03:02, -5.404167
2024/05/16 03:04, -5.4
2024/05/16 03:06, -5.4
2024/05/16 03:08, -5.4125
2024/05/16 03:10, -5.4375
2024/05/16 03:12, -5.4125
2024/05/16 03:14, -5.404167
2024/05/16 03:16, -5.4
2024/05/16 03:18, -5.4
2024/05/16 03:20, -5.4
2024/05/16 03:22, -5.404167
2024/05/16 03:24, -5.4
2024/05/16 03:26, -5.433333
2024/05/16 03:28, -5.408333
2024/05/16 03:30, -5.425
2024/05/16 03:32, -5.404167
2024/05/16 03:34, -5.4
2024/05/16 03:36, -5.409091
2024/05/16 03:38, -5.408333
2024/05/16 03:40, -5.429166
2024/05/16 03:42, -5.404167
2024/05/16 03:44, -5.416666
2024/05/16 03:46, -5.408333
2024/05/16 03:48, -5.408333
2024/05/16 03:50, -5.425
2024/05/16 03:52, -5.425
2024/05/16 03:54, -5.420833
2024/05/16 03:56, -5.422727
2024/05/16 03:58, -5.433333
2024/05/16 04:00, -5.441666
2024/05/16 04:02, -5.4
2024/05/16 04:04, -5.408333
2024/05/16 04:06, -5.454166
2024/05/16 04:08, -5.445833
2024/05/16 04:10, -5.449999
2024/05/16 04:12, -5.483333
2024/05/16 04:14, -5.433333
2024/05/16 04:16, -5.440909
2024/05/16 04:18, -5.433333
2024/05/16 04:20, -5.454166
2024/05/16 04:22, -5.479166
2024/05/16 04:24, -5.458334
2024/05/16 04:26, -5.441666
2024/05/16 04:28, -5.433333
2024/05/16 04:30, -5.4125
2024/05/16 04:32, -5.4375
2024/05/16 04:34, -5.420833
2024/05/16 04:36, -5.373913
2024/05/16 04:38, -5.391666
2024/05/16 04:40, -5.391666
2024/05/16 04:42, -5.4125
2024/05/16 04:44, -5.408333
2024/05/16 04:46, -5.404167
2024/05/16 04:48, -5.391666
2024/05/16 04:50, -5.358333
2024/05/16 04:52, -5.391666
2024/05/16 04:54, -5.391666
2024/05/16 04:56, -5.409091
2024/05/16 04:58, -5.404167
2024/05/16 05:00, -5.4125
2024/05/16 05:02, -5.408333
2024/05/16 05:04, -5.391666
2024/05/16 05:06, -5.408333
2024/05/16 05:08, -5.4
2024/05/16 05:10, -5.404167
2024/05/16 05:12, -5.333334
2024/05/16 05:14, -5.441666
2024/05/16 05:16, -5.427273
2024/05/16 05:18, -5.429166
2024/05/16 05:20, -5.366666
2024/05/16 05:22, -5.420833
2024/05/16 05:24, -5.383333
2024/05/16 05:26, -5.4
2024/05/16 05:28, -5.408333
2024/05/16 05:30, -5.375
2024/05/16 05:32, -5.35
2024/05/16 05:34, -5.316667
2024/05/16 05:36, -5.372727
2024/05/16 05:38, -5.354166
2024/05/16 05:40, -5.383333
2024/05/16 05:42, -5.275
2024/05/16 05:44, -5.333334
2024/05/16 05:46, -5.283333
2024/05/16 05:48, -5.358333
2024/05/16 05:50, -5.408333
2024/05/16 05:52, -5.4
2024/05/16 05:54, -5.35
2024/05/16 05:56, -5.368182
2024/05/16 05:58, -5.383333
2024/05/16 06:00, -5.420833
2024/05/16 06:02, -5.4125
2024/05/16 06:04, -5.395834
2024/05/16 06:06, -5.35
2024/05/16 06:08, -5.395834
2024/05/16 06:10, -5.391666
2024/05/16 06:12, -5.408333
2024/05/16 06:14, -5.375
2024/05/16 06:16, -5.422727
2024/05/16 06:18, -5.429166
2024/05/16 06:20, -5.4
2024/05/16 06:22, -5.404167
2024/05/16 06:24, -5.404167
2024/05/16 06:26, -5.404167
2024/05/16 06:28, -5.370833
2024/05/16 06:30, -5.391666
2024/05/16 06:32, -5.395834
2024/05/16 06:34, -5.425
2024/05/16 06:36, -5.418182
2024/05/16 06:38, -5.387499
2024/05/16 06:40, -5.4
2024/05/16 06:42, -5.4
2024/05/16 06:44, -5.420833
2024/05/16 06:46, -5.433333
2024/05/16 06:48, -5.425
2024/05/16 06:50, -5.420833
2024/05/16 06:52, -5.466667
2024/05/16 06:54, -5.433333
2024/05/16 06:56, -5.409091
2024/05/16 06:58, -5.3625
2024/05/16 07:00, -5.379166
2024/05/16 07:02, -5.420833
2024/05/16 07:04, -5.416666
2024/05/16 07:06, -5.429166
2024/05/16 07:08, -5.4125
2024/05/16 07:10, -5.4
2024/05/16 07:12, -5.358333
2024/05/16 07:14, -5.4
2024/05/16 07:16, -5.4
2024/05/16 07:18, -5.366666
2024/05/16 07:20, -5.3
2024/05/16 07:22, -5.25
2024/05/16 07:24, -5.316667
2024/05/16 07:26, -5.395834
2024/05/16 07:28, -5.358333
2024/05/16 07:30, -5.4
2024/05/16 07:32, -5.404167
2024/05/16 07:34, -5.375
2024/05/16 07:36, -5.363636
2024/05/16 07:38, -5.375
2024/05/16 07:40, -5.404167
2024/05/16 07:42, -5.308333
2024/05/16 07:44, -5.325
2024/05/16 07:46, -5.241666
2024/05/16 07:48, -5.241666
2024/05/16 07:50, -5.35
2024/05/16 07:52, -5.341667
2024/05/16 07:54, -5.266666
2024/05/16 07:56, -5.309091
2024/05/16 07:58, -5.35
2024/05/16 08:00, -5.358333
2024/05/16 08:02, -5.308333
2024/05/16 08:04, -5.383333
2024/05/16 08:06, -5.4
2024/05/16 08:08, -5.387499
2024/05/16 08:10, -5.4
2024/05/16 08:12, -5.404167
2024/05/16 08:14, -5.366666
2024/05/16 08:16, -5.386364
2024/05/16 08:18, -5.375
2024/05/16 08:20, -5.266666
2024/05/16 08:22, -5.216666
2024/05/16 08:24, -5.333334
2024/05/16 08:26, -5.3
2024/05/16 08:28, -5.333334
2024/05/16 08:30, -5.308333
2024/05/16 08:32, -5.316667
2024/05/16 08:34, -5.275
2024/05/16 08:36, -5.331818
2024/05/16 08:38, -5.291666
2024/05/16 08:40, -5.266666
2024/05/16 08:42, -5.216666
2024/05/16 08:44, -5.225
2024/05/16 08:46, -5.2125
2024/05/16 08:48, -5.341667
2024/05/16 08:50, -5.383333
2024/05/16 08:52, -5.341667
2024/05/16 08:54, -5.233333
2024/05/16 08:56, -5.2
2024/05/16 08:58, -5.266666
2024/05/16 09:00, -5.341667
2024/05/16 09:02, -5.35
2024/05/16 09:04, -5.35
2024/05/16 09:06, -5.341667
2024/05/16 09:08, -5.375
2024/05/16 09:10, -5.383333
2024/05/16 09:12, -5.358333
2024/05/16 09:14, -5.35
2024/05/16 09:16, -5.4
2024/05/16 09:18, -5.341667
2024/05/16 09:20, -5.341667
2024/05/16 09:22, -5.387499
2024/05/16 09:24, -5.395834
2024/05/16 09:26, -5.395834
2024/05/16 09:28, -5.35
2024/05/16 09:30, -5.316667
2024/05/16 09:32, -5.379166
2024/05/16 09:34, -5.341667
2024/05/16 09:36, -5.363636
2024/05/16 09:38, -5.358333
2024/05/16 09:40, -5.225
2024/05/16 09:42, -5.341667
2024/05/16 09:44, -5.3
2024/05/16 09:46, -5.283333
2024/05/16 09:48, -5.208333
2024/05/16 09:50, -5.387499
2024/05/16 09:52, -5.404167
2024/05/16 09:54, -5.175
2024/05/16 09:56, -5.072727
2024/05/16 09:58, -5.270834
2024/05/16 10:00, -5.025
2024/05/16 10:02, -5.325
2024/05/16 10:04, -5.379166
2024/05/16 10:06, -5.266666
2024/05/16 10:08, -5.35
2024/05/16 10:10, -5.270833
2024/05/16 10:12, -5.470833
2024/05/16 10:14, -5.416666
2024/05/16 10:16, -5.427272
2024/05/16 10:18, -5.4
2024/05/16 10:20, -5.366666
2024/05/16 10:22, -4.625
2024/05/16 10:24, -5.741666
2024/05/16 10:26, -5.3
2024/05/16 10:28, -4.8875
2024/05/16 10:30, -4.4
2024/05/16 10:32, -4.129167
2024/05/16 10:34, -3.954166
2024/05/16 10:36, -3.975
2024/05/16 10:38, -3.95
2024/05/16 10:40, -3.908333
2024/05/16 10:42, -4.154167
2024/05/16 10:44, -4.129167
2024/05/16 10:46, -4.004167
2024/05/16 10:48, -3.85
2024/05/16 10:50, -4.354166
2024/05/16 10:52, -4.2
2024/05/16 10:54, -3.758333
2024/05/16 10:56, -3.708333
2024/05/16 10:58, -3.970833
2024/05/16 11:00, -3.7625
2024/05/16 11:02, -3.7875
2024/05/16 11:04, -4
2024/05/16 11:06, -3.704166
2024/05/16 11:08, -3.845833
2024/05/16 11:10, -3.695833
2024/05/16 11:12, -3.783333
2024/05/16 11:14, -3.5875
2024/05/16 11:16, -3.491666
2024/05/16 11:18, -3.533333
2024/05/16 11:20, -3.533333
2024/05/16 11:22, -3.883333
2024/05/16 11:24, -3.9125
2024/05/16 11:26, -3.966666
2024/05/16 11:28, -3.6
2024/05/16 11:30, -3.591666
2024/05/16 11:32, -3.4875
2024/05/16 11:34, -3.104166
2024/05/16 11:36, -3.429166
2024/05/16 11:38, -3.270833
2024/05/16 11:40, -3.616666
2024/05/16 11:42, -3.708333
2024/05/16 11:44, -3.754167
2024/05/16 11:46, -3.675
2024/05/16 11:48, -3.079166
2024/05/16 11:50, -3.5625
2024/05/16 11:52, -3.45
2024/05/16 11:54, -3.345833
2024/05/16 11:56, -3.808333
2024/05/16 11:58, -3.416667
2024/05/16 12:00, -3.483333
2024/05/16 12:02, -3.595833
2024/05/16 12:04, -3.55
2024/05/16 12:06, -3.4375
2024/05/16 12:08, -3.4875
2024/05/16 12:10, -3.1375
2024/05/16 12:12, -3.641666
2024/05/16 12:14, -3.433333
2024/05/16 12:16, -3.6875
2024/05/16 12:18, -3.533333
2024/05/16 12:20, -3.25
2024/05/16 12:22, -3.095833
2024/05/16 12:24, -3.6625
2024/05/16 12:26, -3.608333
2024/05/16 12:28, -3.8125
2024/05/16 12:30, -3.629167
2024/05/16 12:32, -3.845833
2024/05/16 12:34, -3.770833
2024/05/16 12:36, -3.325
2024/05/16 12:38, -3.95
2024/05/16 12:40, -3.470833
2024/05/16 12:42, -3.3
2024/05/16 12:44, -4.116666
2024/05/16 12:46, -3.625
2024/05/16 12:48, -3.445833
2024/05/16 12:50, -3.441667
2024/05/16 12:52, -2.975
2024/05/16 12:54, -3.1125
2024/05/16 12:56, -3.425
2024/05/16 12:58, -3.145833
2024/05/16 13:00, -3.875
2024/05/16 13:02, -4.3125
2024/05/16 13:04, -3.670833
2024/05/16 13:06, -3.520833
2024/05/16 13:08, -3.720833
2024/05/16 13:10, -3.55
2024/05/16 13:12, -3.241667
2024/05/16 13:14, -2.779166
2024/05/16 13:16, -3.516666
2024/05/16 13:18, -3.391666
2024/05/16 13:20, -3.745833
2024/05/16 13:22, -3.466666
2024/05/16 13:24, -2.514286
2024/05/16 13:26, -60.75
2024/05/16 13:28, -60.24166
2024/05/16 13:30, -60.43333
2024/05/16 13:32, -60.89583
2024/05/16 13:34, -60.65416
2024/05/16 13:36, -59.875
2024/05/16 13:38, -59.725
2024/05/16 13:40, -60.42083
2024/05/16 13:42, -61.82916
2024/05/16 13:44, -61.57916
2024/05/16 13:46, -62.125
2024/05/16 13:48, -62.07916
2024/05/16 13:50, -62.29583
2024/05/16 13:52, -59.65
2024/05/16 13:54, -59.52916
2024/05/16 13:56, -60.2
2024/05/16 13:58, -60
2024/05/16 14:00, -59.98333
2024/05/16 14:02, -61.35
2024/05/16 14:04, -59.3125
2024/05/16 14:06, -60.15
2024/05/16 14:08, -60.24166
2024/05/16 14:10, -59.675
2024/05/16 14:12, -60.04583
2024/05/16 14:14, -59.45416
2024/05/16 14:16, -59.89583
2024/05/16 14:18, -60.4125
2024/05/16 14:20, -59.54167
2024/05/16 14:22, -59.925
2024/05/16 14:24, -59.85417
2024/05/16 14:26, -57.75416
2024/05/16 14:28, -61.5
2024/05/16 14:30, -57.22917
2024/05/16 14:32, -60.5625
2024/05/16 14:34, -60.45833
2024/05/16 14:36, -60.5125
2024/05/16 14:38, -59.24166
2024/05/16 14:40, -60.4
2024/05/16 14:42, -60.475
2024/05/16 14:44, -60.3
2024/05/16 14:46, -60.80416
2024/05/16 14:48, -60.25833
2024/05/16 14:50, -60.4
2024/05/16 14:52, -61.84166
2024/05/16 14:54, -61.5875
2024/05/16 14:56, -61.87916
2024/05/16 14:58, -61.60417
2024/05/16 15:00, -60.24166
2024/05/16 15:02, -33.74583
2024/05/16 15:04, -58.0625
2024/05/16 15:06, -27.6875
2024/05/16 15:08, -3.866666
2024/05/16 15:10, -4.129167
2024/05/16 15:12, -3.383333
2024/05/16 15:14, -4.370833
2024/05/16 15:16, -4.083334
2024/05/16 15:18, -3.845833
2024/05/16 15:20, -3.925
2024/05/16 15:22, -3.258333
2024/05/16 15:24, -3.966666
2024/05/16 15:26, -4.345833
2024/05/16 15:28, -3.704166
2024/05/16 15:30, -4.2
2024/05/16 15:32, -3.316667
2024/05/16 15:34, -3.483333
2024/05/16 15:36, -4.070833
2024/05/16 15:38, -3.1875
2024/05/16 15:40, -4.204166
2024/05/16 15:42, -3.5125
2024/05/16 15:44, -4.695833
2024/05/16 15:46, -3.675
2024/05/16 15:48, -3.9375
2024/05/16 15:50, -3.625
2024/05/16 15:52, -4.1
2024/05/16 15:54, -4.6625
2024/05/16 15:56, -3.254167
2024/05/16 15:58, -4.741666
2024/05/16 16:00, -4.408333
2024/05/16 16:02, -4.533333
2024/05/16 16:04, -5.133333
2024/05/16 16:06, -4.516666
2024/05/16 16:08, -3.904166
2024/05/16 16:10, -2.829166
2024/05/16 16:12, -3.829166
2024/05/16 16:14, -3.458333
2024/05/16 16:16, -3.9
2024/05/16 16:18, -3.870833
2024/05/16 16:20, -4.175
2024/05/16 16:22, -2.945833
2024/05/16 16:24, -4.158333
2024/05/16 16:26, -3.483333
2024/05/16 16:28, -4.416666
2024/05/16 16:30, -3.35
2024/05/16 16:32, -3.370833
2024/05/16 16:34, -3.6375
2024/05/16 16:36, -3.779166
2024/05/16 16:38, -3.379167
2024/05/16 16:40, -3.958333
2024/05/16 16:42, -3.695833
2024/05/16 16:44, -3.3
2024/05/16 16:46, -4.416666
2024/05/16 16:48, -2.716666
2024/05/16 16:50, -3.091666
2024/05/16 16:52, -3.166666
2024/05/16 16:54, -2.6875
2024/05/16 16:56, -2.920833
2024/05/16 16:58, -2.995833
2024/05/16 17:00, -2.658333
2024/05/16 17:02, -2.6
2024/05/16 17:04, -3.1
2024/05/16 17:06, -2.7875
2024/05/16 17:08, -2.895833
2024/05/16 17:10, -3.304167
2024/05/16 17:12, -3.25
2024/05/16 17:14, -2.45
2024/05/16 17:16, -3.3625
2024/05/16 17:18, -3.695833
2024/05/16 17:20, -4.416666
2024/05/16 17:22, -4
2024/05/16 17:24, -4.85
2024/05/16 17:26, -4.441667
2024/05/16 17:28, -2.833333
2024/05/16 17:30, -3.75
2024/05/16 17:32, -4.5375
2024/05/16 17:34, -4.604166
2024/05/16 17:36, -4.604166
2024/05/16 17:38, -3.316667
2024/05/16 17:40, -4.420833
2024/05/16 17:42, -4.079166
2024/05/16 17:44, -5.2875
2024/05/16 17:46, -5.095833
2024/05/16 17:48, -3.15
2024/05/16 17:50, -4.808333
2024/05/16 17:52, -4.541666
2024/05/16 17:54, -3.558333
2024/05/16 17:56, -3.925
2024/05/16 17:58, -4.341667
2024/05/16 18:00, -4.341667
2024/05/16 18:02, -3.679166
2024/05/16 18:04, -3.704166
2024/05/16 18:06, -4.141666
2024/05/16 18:08, -3.654166
2024/05/16 18:10, -3.6625
2024/05/16 18:12, -4.470833
2024/05/16 18:14, -3.733333
2024/05/16 18:16, -4.05
2024/05/16 18:18, -3.525
2024/05/16 18:20, -3.758333
2024/05/16 18:22, -3.145833
2024/05/16 18:24, -3.75
2024/05/16 18:26, -3.7
2024/05/16 18:28, -4.141666
2024/05/16 18:30, -4.7
2024/05/16 18:32, -3.033333
2024/05/16 18:34, -2.429167
2024/05/16 18:36, -2.454167
2024/05/16 18:38, -2.733333
2024/05/16 18:40, -2.445833
2024/05/16 18:42, -3.15
2024/05/16 18:44, -3.6625
2024/05/16 18:46, -2.891666
2024/05/16 18:48, -2.3375
2024/05/16 18:50, -3.258333
2024/05/16 18:52, -2.85
2024/05/16 18:54, -2.991667
2024/05/16 18:56, -2.0625
2024/05/16 18:58, -3.008333
2024/05/16 19:00, -2.895833
2024/05/16 19:02, -3.770833
2024/05/16 19:04, -2.725
2024/05/16 19:06, -2.1625
2024/05/16 19:08, -2.170833
2024/05/16 19:10, -2.279166
2024/05/16 19:12, -4.508333
2024/05/16 19:14, -4.720833
2024/05/16 19:16, -3.320833
2024/05/16 19:18, -4.216667
2024/05/16 19:20, -3.9125
2024/05/16 19:22, -4.283333
2024/05/16 19:24, -3.85
2024/05/16 19:26, -3.6625
2024/05/16 19:28, -3.466666
2024/05/16 19:30, -3.975
2024/05/16 19:32, -3.7625
2024/05/16 19:34, -4.245833
2024/05/16 19:36, -3.758333
2024/05/16 19:38, -3.558333
2024/05/16 19:40, -4.029167
2024/05/16 19:42, -4.316667
2024/05/16 19:44, -3.433333
2024/05/16 19:46, -4.258333
2024/05/16 19:48, -3.925
2024/05/16 19:50, -4.025
2024/05/16 19:52, -2.608333
2024/05/16 19:54, -3.995833
2024/05/16 19:56, -3.4875
2024/05/16 19:58, -3.183333
2024/05/16 20:00, -3.858333
2024/05/16 20:02, -3.883333
2024/05/16 20:04, -4.454166
2024/05/16 20:06, -4.2875
2024/05/16 20:08, -3.7875
2024/05/16 20:10, -4.5375
2024/05/16 20:12, -4.066667
2024/05/16 20:14, -3.683333
2024/05/16 20:16, -4.225
2024/05/16 20:18, -3.125
2024/05/16 20:20, -3.554166
2024/05/16 20:22, -4.479166
2024/05/16 20:24, -4.3875
2024/05/16 20:26, -4.725
2024/05/16 20:28, -4.420833
2024/05/16 20:30, -3.195833
2024/05/16 20:32, -4.8
2024/05/16 20:34, -3.85
2024/05/16 20:36, -3.908333
2024/05/16 20:38, -4.670833
2024/05/16 20:40, -5.229166
2024/05/16 20:42, -4.495833
2024/05/16 20:44, -4.308333
2024/05/16 20:46, -3.970833
2024/05/16 20:48, -3.666666
2024/05/16 20:50, -4.516666
2024/05/16 20:52, -4.2625
2024/05/16 20:54, -3.6375
2024/05/16 20:56, -2.933333
2024/05/16 20:58, -4.725
2024/05/16 21:00, -4.45
2024/05/16 21:02, -3.770833
2024/05/16 21:04, -3.291667
2024/05/16 21:06, -3.870833
2024/05/16 21:08, -3.9
2024/05/16 21:10, -4.825
2024/05/16 21:12, -3.470833
2024/05/16 21:14, -3.870833
2024/05/16 21:16, -4.291666
2024/05/16 21:18, -4.395833
2024/05/16 21:20, -4.070833
2024/05/16 21:22, -4.5375
2024/05/16 21:24, -4.091667
2024/05/16 21:26, -5.0875
2024/05/16 21:28, -4.554166
2024/05/16 21:30, -4.4875
2024/05/16 21:32, -3.95
2024/05/16 21:34, -4.229166
2024/05/16 21:36, -3.754167
2024/05/16 21:38, -4.5375
2024/05/16 21:40, -4.908333
2024/05/16 21:42, -4.670833
2024/05/16 21:44, -3.9125
2024/05/16 21:46, -3.958333
2024/05/16 21:48, -4.145834
2024/05/16 21:50, -4.120833
2024/05/16 21:52, -4.6625
2024/05/16 21:54, -3.658333
2024/05/16 21:56, -4.204166
2024/05/16 21:58, -3.654166
2024/05/16 22:00, -3.245833
2024/05/16 22:02, -4.275
2024/05/16 22:04, -3.4625
2024/05/16 22:06, -4.491666
2024/05/16 22:08, -4.704166
2024/05/16 22:10, -4.391666
2024/05/16 22:12, -3.2
2024/05/16 22:14, -3.783333
2024/05/16 22:16, -4.533333
2024/05/16 22:18, -4.275
2024/05/16 22:20, -3.375
2024/05/16 22:22, -3.308333
2024/05/16 22:24, -4.354166
2024/05/16 22:26, -4.433333
2024/05/16 22:28, -3.929166
2024/05/16 22:30, -3.891666
2024/05/16 22:32, -3.895833
2024/05/16 22:34, -3.533333
2024/05/16 22:36, -4.033333
2024/05/16 22:38, -4.5375
2024/05/16 22:40, -5.066667
2024/05/16 22:42, -4.95
2024/05/16 22:44, -4.241666
2024/05/16 22:46, -4.833334
2024/05/16 22:48, -5.095833
2024/05/16 22:50, -4.425
2024/05/16 22:52, -4.579166
2024/05/16 22:54, -4.208333
2024/05/16 22:56, -5.116666
2024/05/16 22:58, -3.941667
2024/05/16 23:00, -4.204166
2024/05/16 23:02, -4.129167
2024/05/16 23:04, -4.7625
2024/05/16 23:06, -4.783333
2024/05/16 23:08, -4.725
2024/05/16 23:10, -5.083334
2024/05/16 23:12, -4.1125
2024/05/16 23:14, -4.3375
2024/05/16 23:16, -4.570833
2024/05/16 23:18, -4.2375
2024/05/16 23:20, -3.8625
2024/05/16 23:22, -4.3125
2024/05/16 23:24, -4.170833
2024/05/16 23:26, -3.3375
2024/05/16 23:28, -5.25
2024/05/16 23:30, -3.6625
2024/05/16 23:32, -5.654167
2024/05/16 23:34, -3.454166
2024/05/16 23:36, -3.1375
2024/05/16 23:38, -4.966667
2024/05/16 23:40, -3.858333
2024/05/16 23:42, -4.395833
2024/05/16 23:44, -4.075
2024/05/16 23:46, -4.4125
2024/05/16 23:48, -4.708334
2024/05/16 23:50, -4.6375
2024/05/16 23:52, -4.695833
2024/05/16 23:54, -4.170833
2024/05/16 23:56, -4.1
2024/05/16 23:58, -3.933333
2024/05/17 00:00, -3.966666
2024/05/17 00:02, -3.9125
2024/05/17 00:04, -4.829166
2024/05/17 00:06, -4.725
2024/05/17 00:08, -3.791666
2024/05/17 00:10, -3.616666
2024/05/17 00:12, -4.25
2024/05/17 00:14, -4.125
2024/05/17 00:16, -3.604166
2024/05/17 00:18, -4.283333
2024/05/17 00:20, -3.770833
2024/05/17 00:22, -3.75
2024/05/17 00:24, -4.679166
2024/05/17 00:26, -5.045833
2024/05/17 00:28, -4.533333
2024/05/17 00:30, -4.55
2024/05/17 00:32, -3.283333
2024/05/17 00:34, -4.033333
2024/05/17 00:36, -4.270834
2024/05/17 00:38, -3.55
2024/05/17 00:40, -4.216667
2024/05/17 00:42, -3.291667
2024/05/17 00:44, -3.466666
2024/05/17 00:46, -3.341666
2024/05/17 00:48, -4.570833
2024/05/17 00:50, -4.1875
2024/05/17 00:52, -4.270834
2024/05/17 00:54, -4.504167
2024/05/17 00:56, -3.85
2024/05/17 00:58, -4.4875
2024/05/17 01:00, -4.370833
2024/05/17 01:02, -4.55
2024/05/17 01:04, -4.204166
2024/05/17 01:06, -4.433333
2024/05/17 01:08, -3.9375
2024/05/17 01:10, -4.183333
2024/05/17 01:12, -4.445833
2024/05/17 01:14, -3.808333
2024/05/17 01:16, -4.583334
2024/05/17 01:18, -4.616666
2024/05/17 01:20, -4.395833
2024/05/17 01:22, -4.225
2024/05/17 01:24, -4.129167
2024/05/17 01:26, -3.979166
2024/05/17 01:28, -2.904166
2024/05/17 01:30, -5.0125
2024/05/17 01:32, -4.091667
2024/05/17 01:34, -3.483333
2024/05/17 01:36, -4.4875
2024/05/17 01:38, -3.970833
2024/05/17 01:40, -4.004167
2024/05/17 01:42, -5.016666
2024/05/17 01:44, -4.420833
2024/05/17 01:46, -4.0375
2024/05/17 01:48, -3.304167
2024/05/17 01:50, -3.570833
2024/05/17 01:52, -4.416666
2024/05/17 01:54, -4.116666
2024/05/17 01:56, -4.2
2024/05/17 01:58, -3.104166
2024/05/17 02:00, -4.425
2024/05/17 02:02, -4.8
2024/05/17 02:04, -4.420833
2024/05/17 02:06, -3.870833
2024/05/17 02:08, -4.108333
2024/05/17 02:10, -4.175
2024/05/17 02:12, -4.429166
2024/05/17 02:14, -4.083334
2024/05/17 02:16, -4.75
2024/05/17 02:18, -4.545833
2024/05/17 02:20, -3.883333
2024/05/17 02:22, -3.908333
2024/05/17 02:24, -3.8875
2024/05/17 02:26, -4.5125
2024/05/17 02:28, -3.433333
2024/05/17 02:30, -4.604166
2024/05/17 02:32, -4.295833
2024/05/17 02:34, -4.020834
2024/05/17 02:36, -4.283333
2024/05/17 02:38, -4.05
2024/05/17 02:40, -4.645833
2024/05/17 02:42, -3.7625
2024/05/17 02:44, -4.458333
2024/05/17 02:46, -4.320833
2024/05/17 02:48, -3.541666
2024/05/17 02:50, -3.829166
2024/05/17 02:52, -4.508333
2024/05/17 02:54, -4.425
2024/05/17 02:56, -3.63913
2024/05/17 02:58, -4.0875
2024/05/17 03:00, -3.595833
2024/05/17 03:02, -4.358333
2024/05/17 03:04, -3.65
2024/05/17 03:06, -4.029167
2024/05/17 03:08, -4.45
2024/05/17 03:10, -3.6
2024/05/17 03:12, -3.2875
2024/05/17 03:14, -4.3875
2024/05/17 03:16, -3.7125
2024/05/17 03:18, -4.454166
2024/05/17 03:20, -4.504167
2024/05/17 03:22, -3.270833
2024/05/17 03:24, -3.120833
2024/05/17 03:26, -4.15
2024/05/17 03:28, -4.091667
2024/05/17 03:30, -4.329166
2024/05/17 03:32, -4.245833
2024/05/17 03:34, -3.954166
2024/05/17 03:36, -3.258333
2024/05/17 03:38, -4.279167
2024/05/17 03:40, -4.008333
2024/05/17 03:42, -3.391666
2024/05/17 03:44, -3.758333